Tracking 33181 objects as of 19-Feb-2026
HD Live streaming from Space Station
objects crossing your sky now

STARLINK-33556

Track STARLINK-33556 now!
10-day predictions
STARLINK-33556 is classified as:


NORAD ID: 62109
Int'l Code: 2024-220X
Perigee: 489.0 km
Apogee: 491.3 km
Inclination: 43.0 °
Period: 94.3 minutes
Semi major axis: 6861 km
RCS: Unknown
Launch date: November 25, 2024
Source: United States (US)
Launch site: AIR FORCE EASTERN TEST RANGE (AFETR)
Your satellite tracking list
Your tracking list is empty




NASA's NSSDC Master Catalog

Two Line Element Set (TLE):
1 62109U 24220X   26049.13988586  .00014082  00000-0  52013-3 0  9996
2 62109  43.0009 315.7496 0001659 254.3658 105.7011 15.27589870 70223
Source of the keplerian elements: AFSPC